This demonstration page uses our WeatherBlox Daily Observations layout. Learn more.

Left ArrowRight Arrow

Hourly Observations for February 6, 2015

Temp ( °F °C ) Dew Point ( °F °C ) Humidity (%) Winds ( mph kmh ) Pressure ( in mb ) Visibility ( mi km ) Precip ( " mm )
12:51 am 00:51 Clear 52 11.1 31 -0.6 45 45 E 13 20 30.13 1020 10 16 0.00 0.00
1:51 am 01:51 Clear 52 11.1 30 -1.1 43 43 ESE 10 17 30.13 1020 10 16 0.00 0.00
2:51 am 02:51 Clear 52 11.1 29 -1.7 41 41 ESE 12 19 30.13 1020 10 16 0.00 0.00
3:51 am 03:51 Clear 50 10 29 -1.7 44 44 ESE 10 17 30.12 1020 10 16 0.00 0.00
4:51 am 04:51 Clear 48 8.9 30 -1.1 50 50 E 5 7 30.13 1020 10 16 0.00 0.00
5:51 am 05:51 Clear 44 6.7 33 0.6 65 65 Calm 30.16 1021 10 16 0.00 0.00
6:51 am 06:51 Clear 47 8.3 28 -2.2 48 48 ESE 10 17 30.18 1022 10 16 0.00 0.00
7:51 am 07:51 Sunny 50 10 27 -2.8 41 41 SSE 10 17 30.20 1023 10 16 0.00 0.00
8:51 am 08:51 Sunny 55 12.8 28 -2.2 35 35 SE 13 20 30.21 1023 10 16 0.00 0.00
9:51 am 09:51 Sunny 59 15 27 -2.8 29 29 SE 15 24 30.21 1023 10 16 0.00 0.00
10:51 am 10:51 Sunny 64 17.8 27 -2.8 25 25 SE 14 22 30.20 1023 10 16 0.00 0.00
11:51 am 11:51 Sunny 67 19.4 29 -1.7 24 24 VRB 6 9 30.17 1022 10 16 0.00 0.00
12:51 pm 12:51 Sunny 70 21.1 32 0 25 25 S 6 9 30.13 1020 10 16 0.00 0.00
1:51 pm 13:51 Sunny 72 22.2 33 0.6 24 24 S 5 7 30.10 1019 10 16 0.00 0.00
2:51 pm 14:51 Sunny 74 23.3 31 -0.6 20 20 VRB 3 6 30.07 1018 10 16 0.00 0.00
3:51 pm 15:51 Sunny 74 23.3 31 -0.6 20 20 Calm 30.06 1018 10 16 0.00 0.00
4:51 pm 16:51 Sunny 74 23.3 30 -1.1 20 20 Calm 30.05 1018 10 16 0.00 0.00
5:51 pm 17:51 Sunny 70 21.1 35 1.7 28 28 W 3 6 30.06 1018 10 16 0.00 0.00
6:51 pm 18:51 Clear 63 17.2 38 3.3 40 40 NNW 6 9 30.08 1019 10 16 0.00 0.00
7:51 pm 19:51 Clear 58 14.4 39 3.9 50 50 N 6 9 30.10 1019 10 16 0.00 0.00
8:51 pm 20:51 Clear 55 12.8 40 4.4 57 57 E 5 7 30.11 1020 10 16 0.00 0.00
9:51 pm 21:51 Clear 52 11.1 40 4.4 64 64 Calm 30.11 1020 10 16 0.00 0.00
10:51 pm 22:51 Clear 53 11.7 38 3.3 57 57 Calm 30.11 1020 10 16 0.00 0.00
11:51 pm 23:51 Clear 51 10.6 38 3.3 61 61 SE 5 7 30.10 1019 10 16 0.00 0.00

Powered by AerisWeather